Temp
36 35 35 34 33 32 32 31 31 31 30 30 29 29 29 29 28 28 27 26 26 25 25 24 24 24 24 24 24 24 24 24 24 24 24 25 25 25 25 25 26 26 26 26 26 26 26 25 25 25 25 24 24 24 24 24 24 24 24 24 24 24 24
36 36 35 34 33 32 32 32 31 31 31 30 29 29 29 29 28 28 27 26 26 25 25 24 24 24 24 24 24 24 24 24 24 24 25 25 25 25 25 25 26 25 26 26 27 26 25 25 25 25 25 25 25 25 24 24 24 24 24 24 24 24 24
36 36 36 35 34 33 32 32 32 31 31 30 30 29 29 29 28 28 27 27 26 26 25 25 24 24 24 24 24 24 24 24 24 24 25 25 25 25 25 25 25 26 26 26 26 26 26 25 25 25 25 25 25 25 24 24 24 24 24 24 24 24 24
36 36 36 35 35 33 33 32 32 32 31 31 30 30 29 29 28 28 27 27 26 26 26 25 25 25 25 24 24 24 24 24 24 24 25 25 25 25 25 25 25 26 26 26 26 26 26 26 25 25 25 25 25 25 25 25 24 24 24 24 24 24 24
36 36 36 36 35 34 33 33 33 32 32 32 31 30 29 29 28 28 28 27 27 27 26 26 26 25 25 25 25 25 24 24 24 25 25 25 25 25 25 26 25 26 26 26 26 25 25 26 25 25 25 25 25 25 25 25 25 24 24 24 24 25 25
37 36 36 36 36 35 34 33 34 33 32 32 32 30 30 29 29 29 28 28 28 27 27 26 26 26 25 25 25 25 25 24 24 25 25 25 25 25 25 26 26 26 26 26 26 25 25 25 25 25 25 25 25 25 25 25 25 25 24 24 24 25 25
37 37 37 37 37 36 35 34 34 34 33 33 32 31 31 30 30 30 29 29 28 28 28 27 27 26 26 26 26 25 25 25 25 25 25 25 25 25 25 26 26 26 26 26 26 26 25 25 25 25 25 25 26 26 26 25 25 25 25 24 24 25 25
38 37 37 37 37 37 36 35 35 35 33 33 33 32 31 31 31 30 30 29 29 29 28 28 28 27 26 26 26 26 26 26 25 25 25 25 26 25 25 25 25 26 26 26 26 25 25 25 25 25 25 25 26 26 26 25 25 25 25 25 25 25 25
38 38 37 37 38 38 37 36 35 35 34 33 33 32 32 31 31 31 31 30 30 30 29 29 29 28 27 26 26 26 26 26 26 25 25 26 26 26 26 26 26 25 25 26 26 25 25 25 26 25 25 25 25 25 25 25 25 25 25 25 25 25 25
38 37 37 38 38 38 38 36 35 35 34 33 33 32 32 32 32 31 31 31 31 30 30 30 29 28 27 27 26 26 26 26 26 26 26 26 27 27 27 27 26 26 25 26 26 26 25 25 26 25 25 25 25 25 25 25 25 25 25 25 25 25 25
38 37 36 37 38 38 37 36 35 34 33 33 32 32 32 32 32 32 31 31 31 31 31 30 30 29 28 27 27 27 27 26 27 27 26 27 27 27 27 27 27 26 26 26 27 27 26 25 25 25 25 25 25 25 25 25 25 25 25 25 25 25 25
36 36 35 36 36 36 36 36 34 33 33 33 32 33 32 31 32 32 32 32 31 31 31 30 30 30 29 28 28 28 27 27 27 27 27 27 28 28 28 28 28 27 26 26 26 27 26 26 25 25 25 25 25 25 25 25 25 25 25 25 26 25 25
34 35 34 34 35 35 35 35 34 33 32 33 33 33 32 32 32 32 32 32 32 31 31 30 30 30 29 28 28 28 28 27 27 27 27 27 28 28 28 28 28 28 27 27 27 27 27 26 26 25 25 25 25 25 25 25 25 25 24 25 26 25 25
33 34 34 34 34 34 34 34 33 32 32 33 33 33 32 32 32 32 32 31 31 31 31 31 30 30 29 29 28 28 28 28 28 27 27 27 27 28 28 28 28 28 27 27 27 27 27 27 26 25 25 25 25 25 25 25 25 25 24 25 25 25 25
33 35 35 35 34 33 33 33 33 32 31 32 33 33 33 32 32 32 32 31 31 31 31 31 30 30 29 29 28 28 28 28 28 27 27 27 27 27 27 28 27 27 27 27 27 27 27 27 27 26 25 25 25 25 25 25 25 25 25 25 25 25 26
32 33 34 34 34 34 33 33 32 32 31 32 33 33 33 32 32 32 32 31 31 31 31 31 30 30 29 29 28 28 28 28 27 27 27 27 27 26 27 27 27 27 27 26 26 26 27 27 27 27 26 26 26 26 25 25 25 25 25 25 25 25 26
30 30 31 32 33 33 34 33 33 32 31 31 32 33 33 32 32 32 32 32 31 31 31 31 30 29 29 29 28 28 27 27 27 27 26 26 26 26 26 26 26 26 26 26 26 26 26 26 26 27 27 26 26 26 26 26 26 25 25 25 25 25 25
28 28 29 30 30 31 32 33 34 33 32 32 33 33 33 32 32 32 32 32 31 31 31 31 30 29 29 29 28 28 27 27 27 26 26 26 26 26 25 26 26 26 26 26 26 25 25 26 26 26 27 27 27 27 26 26 26 25 25 25 25 25 25
26 27 28 29 29 30 31 32 34 34 33 33 33 33 33 32 32 32 32 32 31 31 31 31 30 29 29 29 28 27 27 26 26 26 26 26 25 25 25 25 25 26 26 26 26 25 25 25 25 25 26 26 27 27 27 27 26 25 25 25 25 25 25
24 25 26 27 29 30 30 31 33 34 34 34 33 33 33 33 32 32 32 32 31 31 31 31 30 29 28 28 28 27 26 26 26 26 26 25 25 25 25 25 25 25 26 26 26 25 25 25 25 25 25 26 26 26 26 27 26 25 25 25 25 25 24
23 24 24 26 28 29 29 30 31 34 35 34 34 34 33 33 32 32 32 32 31 31 31 30 30 29 28 28 28 27 26 26 26 26 26 25 25 25 25 25 25 25 26 26 26 25 25 25 25 25 25 25 26 26 26 27 26 26 25 25 25 25 24
22 23 23 25 27 28 28 29 31 33 35 34 34 34 33 33 33 32 32 32 31 31 30 30 29 29 28 28 27 27 27 26 26 26 26 25 25 25 25 25 25 25 25 26 26 26 26 25 26 26 25 25 26 26 26 26 26 26 25 25 25 24 24
21 21 23 25 27 28 29 30 31 33 34 34 34 34 34 33 33 33 33 32 31 31 30 30 29 29 28 28 28 27 27 27 26 26 26 26 25 25 25 25 25 25 25 26 26 27 26 26 26 26 26 26 26 26 26 26 26 26 25 25 24 24 24
20 21 23 26 28 29 30 31 32 33 34 34 34 34 34 33 33 32 32 32 32 31 30 30 29 29 28 28 28 28 27 27 27 26 26 26 26 26 26 26 25 25 25 26 26 27 27 27 27 27 27 26 26 26 26 26 26 26 25 25 24 24 23
19 21 24 27 29 29 30 31 32 33 33 33 33 34 33 33 32 32 32 32 31 31 30 30 29 29 28 28 28 28 27 27 27 26 26 26 26 26 26 26 26 26 26 26 26 27 27 27 27 27 27 27 27 26 26 26 27 26 25 25 25 24 24
18 20 24 26 28 28 29 30 31 33 33 33 33 33 33 32 32 32 31 31 31 31 30 30 29 29 29 28 28 28 27 27 27 27 26 26 26 26 26 26 26 26 26 26 27 27 27 28 28 28 28 27 27 27 26 26 27 26 26 25 25 25 24
18 20 23 25 27 27 28 30 31 32 33 33 33 33 32 32 32 32 31 31 31 31 31 30 30 29 29 29 29 28 28 27 27 27 27 26 26 26 27 27 27 27 27 27 27 27 27 28 28 28 28 28 28 28 27 27 27 26 26 25 25 25 24
18 20 21 23 25 27 29 31 31 32 33 33 32 32 32 32 32 31 30 31 31 31 31 30 30 29 29 28 29 28 28 27 27 27 27 27 26 26 27 27 27 27 27 27 28 28 27 27 28 28 28 28 28 28 28 27 27 26 26 26 25 25 24
17 18 20 22 24 26 28 30 30 31 33 32 32 32 32 32 31 30 30 30 31 31 31 30 29 29 28 28 28 28 28 27 27 27 27 27 27 27 27 27 27 27 27 27 27 27 27 27 27 27 28 28 28 28 28 27 27 26 26 26 25 25 24
17 18 19 20 23 24 27 28 29 30 32 32 32 32 32 31 30 30 30 30 30 30 31 30 29 29 28 28 28 28 28 28 27 27 27 27 27 27 27 27 27 27 27 27 27 27 27 27 27 27 27 28 28 28 28 27 27 26 26 26 25 25 25
16 17 18 19 21 22 26 28 28 29 31 31 31 31 31 31 30 29 29 30 30 30 30 29 29 28 28 28 28 28 28 28 27 27 27 27 27 27 27 27 27 27 27 26 27 27 27 27 27 27 27 28 28 28 28 28 27 27 26 25 25 25 25
16 17 17 18 19 21 24 27 28 28 29 29 30 30 30 30 30 29 29 29 29 29 30 29 28 28 28 28 28 28 28 28 28 27 27 27 27 27 27 27 27 27 27 27 27 27 27 27 28 28 28 28 28 28 28 28 28 27 26 25 25 25 25
16 16 16 17 18 19 22 25 27 28 27 28 28 29 29 29 29 29 29 28 29 29 29 28 28 28 28 28 28 28 28 28 28 28 27 27 27 27 27 27 27 27 27 27 27 27 27 28 28 28 28 29 29 29 28 28 28 28 27 26 25 24 24
16 16 16 16 17 19 20 23 24 26 26 27 27 27 27 28 28 28 28 28 28 28 28 28 28 28 28 28 28 28 28 28 28 28 28 28 28 28 28 28 28 28 28 27 28 28 28 28 28 28 29 29 29 29 29 29 28 28 27 27 26 25 24
15 15 16 16 17 18 20 21 22 24 25 25 26 26 26 26 27 27 27 27 28 28 28 28 28 28 28 29 29 29 29 28 28 28 29 29 28 28 28 28 28 28 28 28 28 28 28 28 28 29 29 29 29 29 29 28 28 28 28 28 27 26 25
15 15 16 16 16 17 19 20 21 22 24 24 25 26 26 26 26 26 27 27 27 27 28 28 28 28 29 29 29 29 29 29 29 29 29 29 29 27 25 26 26 27 27 27 27 28 28 28 28 28 29 29 28 28 28 28 27 27 27 27 27 26 25
15 15 16 16 16 16 18 20 21 22 23 24 24 25 25 25 26 26 26 26 26 27 27 28 28 28 29 29 29 29 29 29 30 29 29 29 29 26 25 24 24 25 26 26 26 26 27 27 27 28 28 28 27 27 27 27 27 27 27 26 26 25 24
15 16 16 16 16 16 17 19 21 22 22 23 24 24 25 25 25 25 25 25 26 26 27 27 28 29 29 29 28 27 28 29 29 29 28 28 28 26 25 25 24 23 22 23 24 25 25 26 26 27 27 27 26 26 26 26 26 26 25 25 25 24 24
Height
710 712 714 718 722 725 727 729 733 737 742 746 750 755 759 763 767 770 773 776 780 785 789 793 796 800 803 807 810 813 816 819 822 824 827 829 831 833 835 837 838 840 842 843 845 847 849 851 853 854 855 857 858 859 860 861 862 863 864 865 866 866 866
707 709 710 713 717 721 722 725 729 733 737 741 746 751 754 758 762 765 768 772 775 780 784 788 792 796 800 803 807 810 813 816 819 821 824 826 828 830 832 834 835 837 839 841 843 844 847 849 850 852 853 855 856 857 858 859 860 862 863 863 864 865 865
703 704 705 708 712 715 717 720 724 728 732 736 740 745 748 752 756 760 764 768 771 776 780 784 788 792 796 800 803 806 809 812 815 818 820 823 825 827 829 831 833 835 836 838 840 842 844 846 848 850 851 853 854 855 856 858 859 860 861 862 862 863 864
700 699 700 703 705 709 712 715 719 722 726 730 733 737 742 747 752 756 760 764 767 771 775 779 784 788 792 796 799 803 805 809 812 814 817 820 822 824 827 828 830 832 833 835 837 839 841 843 845 847 849 850 852 853 854 855 857 858 859 860 860 861 862
696 696 697 699 701 705 708 710 714 717 721 724 728 733 737 743 748 752 756 759 763 767 770 775 780 785 789 792 795 799 801 805 808 811 814 817 820 822 823 825 827 829 831 832 834 836 838 840 842 844 846 848 849 851 852 853 854 855 856 857 858 859 860
691 693 695 696 697 700 702 704 707 710 715 718 723 729 733 739 743 747 751 755 759 764 768 772 776 780 784 787 791 794 798 801 804 807 811 814 817 819 820 822 824 826 828 830 832 833 835 837 840 842 843 845 847 848 849 851 852 853 854 855 856 857 857
685 687 689 690 692 694 695 698 700 704 709 713 719 725 729 733 737 742 746 750 754 759 763 767 770 774 779 782 786 790 793 797 800 803 807 810 813 815 817 819 821 823 825 827 829 831 832 835 836 839 841 842 844 845 847 848 849 851 852 853 854 854 855
679 682 684 685 686 687 689 692 695 699 705 710 715 720 724 728 732 736 741 744 749 754 758 762 765 769 774 778 782 785 789 793 796 800 803 806 809 811 814 816 818 820 822 824 826 828 830 831 833 836 838 839 841 843 844 846 847 848 849 850 851 852 853
673 676 678 679 679 680 682 686 690 694 700 706 710 713 718 722 726 730 734 739 744 748 751 756 760 765 769 773 777 781 785 789 792 796 799 802 805 807 810 812 814 817 819 821 823 825 827 829 830 832 834 836 838 840 841 843 844 845 847 848 848 849 850
670 673 675 674 675 675 677 682 687 692 697 702 705 709 714 717 721 725 729 734 738 741 746 751 756 761 765 768 772 776 781 785 788 791 795 798 801 803 806 809 811 813 815 818 820 822 823 825 827 829 831 833 835 836 838 839 841 842 844 845 846 847 848
667 671 673 673 673 674 677 681 685 689 693 697 702 705 709 713 717 721 725 728 732 736 742 747 752 756 760 764 768 772 776 780 783 787 790 793 796 799 802 805 807 810 812 814 816 818 820 822 824 826 827 829 831 833 834 836 838 839 840 842 843 844 845
670 672 675 676 675 676 678 680 683 687 689 694 698 701 705 709 712 716 720 723 728 733 738 742 747 751 755 760 763 767 771 775 778 782 785 788 792 795 798 801 803 806 808 810 813 815 817 818 820 822 823 825 827 829 831 833 834 836 837 839 840 841 842
676 675 677 677 677 678 680 681 684 686 688 691 693 697 700 704 708 712 716 720 724 729 734 738 743 747 751 755 758 762 765 769 773 777 780 784 787 791 794 796 799 802 804 806 809 811 813 815 816 818 820 822 824 826 828 830 831 833 834 835 837 838 839
678 677 676 676 677 678 680 682 683 684 686 688 691 695 698 701 704 708 711 716 720 725 729 734 738 742 746 750 754 757 760 764 768 772 776 780 784 787 790 793 795 798 801 803 805 807 809 811 813 815 817 819 821 823 825 826 828 829 830 832 833 834 835
678 676 675 676 677 678 678 680 681 682 684 686 689 692 695 699 702 705 709 713 717 721 725 730 734 738 742 746 749 752 756 761 765 769 773 776 780 783 786 789 792 795 797 800 802 804 806 808 810 812 814 815 817 819 821 823 824 825 826 828 829 831 832
679 678 678 677 676 676 676 677 678 679 681 683 685 688 692 696 699 702 706 709 713 717 721 726 730 734 738 741 745 749 753 757 761 765 769 772 776 779 782 786 789 791 794 796 798 801 803 805 807 809 810 812 814 816 817 819 820 821 822 824 826 828 829
683 682 682 679 677 676 675 675 675 677 678 680 682 684 687 691 694 698 702 705 709 713 716 721 726 729 733 737 741 746 750 754 758 761 765 768 772 775 779 782 785 788 791 793 795 798 800 802 804 805 807 809 810 812 813 814 815 816 818 820 822 824 826
687 685 683 680 679 677 676 674 673 674 674 674 676 680 683 687 690 694 698 701 705 709 713 717 721 725 730 734 739 743 746 750 754 757 761 765 768 772 775 779 782 784 787 789 792 794 796 798 800 802 804 806 807 808 809 810 811 812 814 816 818 820 823
691 687 683 680 679 676 675 672 669 668 668 669 671 675 678 681 685 688 692 696 701 705 710 713 717 722 727 731 735 739 742 746 750 753 757 761 764 768 772 775 778 780 783 786 788 791 793 795 797 799 800 802 803 805 806 807 808 808 810 812 814 816 819
694 690 686 682 678 674 672 669 666 663 663 665 667 669 673 677 681 685 690 695 699 703 707 711 715 719 723 727 731 735 739 743 746 750 753 757 761 765 768 771 774 776 780 782 785 787 789 791 793 795 797 798 800 801 802 803 804 805 806 808 810 812 815
697 694 690 684 679 674 671 668 664 661 660 662 664 667 672 676 679 684 688 692 696 700 704 708 712 716 720 724 727 731 735 739 743 747 750 754 758 761 764 767 770 773 776 779 781 783 785 787 789 791 793 795 796 798 798 799 800 801 803 804 806 809 811
699 696 691 685 678 674 669 665 661 657 657 659 662 665 668 671 676 680 684 688 693 697 701 706 710 713 717 720 723 727 731 735 739 743 746 750 754 757 760 763 766 769 773 775 778 780 782 784 785 787 789 790 792 793 794 795 797 798 799 801 803 806 808
700 695 689 681 675 670 665 661 657 654 654 657 659 662 664 668 672 677 681 685 690 694 699 703 706 710 713 716 719 723 726 731 735 739 743 746 749 752 756 759 762 766 769 771 774 776 777 779 781 783 784 786 787 789 790 791 793 794 795 797 800 802 804
698 692 685 676 670 666 660 656 653 652 652 654 656 658 662 666 670 674 678 682 686 691 695 698 702 706 709 712 715 719 723 727 731 735 738 742 745 748 752 755 759 761 764 767 769 771 773 775 777 778 780 781 783 784 786 787 788 790 791 794 796 798 800
697 691 682 673 666 662 657 653 651 650 650 652 654 656 660 664 668 671 675 679 683 688 691 694 698 701 704 708 712 716 720 724 727 731 735 738 741 745 748 752 755 758 760 763 765 767 769 771 773 774 775 777 779 780 782 783 785 786 787 789 792 794 796
700 691 681 671 665 660 657 652 650 649 649 650 653 655 658 662 665 668 672 676 681 684 687 690 694 697 701 705 709 713 717 720 724 728 731 735 739 742 746 749 751 754 757 759 761 763 765 767 769 770 772 773 775 776 778 779 781 782 783 785 787 789 791
700 690 681 673 666 661 656 651 649 649 648 649 652 655 657 660 663 666 670 674 677 679 682 687 691 696 700 703 706 710 714 717 721 724 728 732 736 740 743 746 748 751 753 755 757 759 761 763 765 767 768 770 771 772 774 775 777 778 779 780 782 784 787
699 691 684 676 667 661 656 650 649 648 648 650 653 654 656 658 661 664 668 670 673 676 680 685 690 694 697 700 704 707 710 714 718 722 726 730 733 737 740 742 745 748 750 752 754 756 758 760 762 763 765 766 768 769 770 771 773 774 775 776 778 779 782
700 693 686 678 670 663 657 652 650 648 647 650 653 653 655 658 660 663 665 667 670 675 680 684 688 691 695 698 701 705 708 712 715 719 723 726 729 733 736 739 742 745 747 749 751 753 756 758 760 761 762 763 764 766 767 768 769 770 771 772 774 775 777
700 694 687 680 672 665 659 656 654 651 648 649 652 654 656 658 660 662 664 667 671 675 679 683 686 690 693 696 699 703 706 710 713 717 720 723 727 730 733 736 739 742 745 747 749 751 753 755 757 758 759 760 761 762 763 765 766 766 767 768 769 771 772
700 695 689 682 675 668 661 657 656 654 651 651 653 655 657 659 661 664 666 669 672 675 678 682 686 689 692 695 698 701 704 708 711 714 718 721 724 727 730 733 736 739 741 744 746 748 750 751 753 755 756 756 757 758 759 761 762 763 763 764 766 767 769
699 694 689 683 677 671 664 659 658 657 656 655 655 656 658 660 662 665 667 670 673 675 678 682 685 688 691 694 697 700 703 706 709 712 716 719 721 724 727 730 733 735 738 740 742 744 746 748 749 750 751 752 753 754 755 757 758 759 760 760 762 764 766
700 695 690 685 680 674 669 664 660 659 659 659 658 659 660 661 663 666 668 670 673 676 679 682 684 687 690 692 696 699 702 704 707 710 713 716 719 722 724 727 729 731 734 736 738 740 742 744 745 746 747 748 749 750 752 753 754 755 756 757 759 761 763
702 697 692 686 681 677 673 669 665 663 662 662 661 662 663 663 665 667 669 671 674 677 679 682 684 686 689 692 694 697 700 703 705 708 710 713 716 718 720 723 725 727 729 731 733 735 737 739 740 741 742 743 745 746 747 749 750 751 753 754 756 758 760
705 700 695 689 684 680 676 673 670 668 665 664 664 664 665 666 667 668 670 673 675 677 679 682 684 686 689 691 693 696 698 701 703 705 708 710 712 715 716 718 721 723 725 727 729 731 733 734 736 737 738 740 741 742 744 746 747 749 750 752 754 756 758
707 702 698 693 687 682 678 675 673 671 669 668 667 666 666 667 669 670 673 675 676 677 679 681 684 686 688 690 692 694 696 698 700 703 705 707 709 711 713 716 718 720 722 724 726 728 730 732 733 734 736 737 739 740 742 744 745 747 749 750 752 754 756
709 705 701 696 690 685 681 678 675 673 671 670 670 669 669 670 672 674 675 676 677 678 679 681 683 685 686 689 690 692 694 696 698 700 702 704 706 708 711 714 717 719 721 722 724 726 728 730 731 732 734 736 737 738 741 743 744 746 747 749 750 753 754
712 708 704 699 694 690 685 681 679 676 675 674 673 672 672 674 675 677 678 678 679 679 680 681 683 684 685 688 690 692 693 695 697 699 701 703 705 707 710 713 716 718 720 721 722 724 726 728 729 731 733 734 735 737 739 741 742 744 745 747 748 750 752
Wind_Speed
16 16 16 15 16 18 19 20 23 26 28 29 30 32 32 31 31 30 30 32 32 31 31 31 29 29 29 29 27 26 26 25 24 23 23 22 21 20 20 19 20 20 19 18 18 17 17 16 15 15 15 15 15 15 15 14 14 12 12 11 10 10 10
15 15 16 16 16 18 20 21 24 26 28 29 30 32 32 32 32 32 30 31 33 33 32 31 30 30 29 28 27 27 26 26 24 23 22 21 21 21 20 20 20 20 20 19 17 16 16 16 16 16 15 15 15 15 15 15 15 13 12 12 12 10 10
15 15 16 16 16 18 20 21 23 27 28 29 31 32 34 34 34 33 32 31 32 32 32 32 32 30 29 28 27 27 27 26 25 24 23 22 22 22 21 20 20 20 19 19 17 16 16 16 16 16 16 15 15 16 16 15 15 14 13 13 13 12 11
15 16 16 17 18 19 19 20 23 27 29 31 33 35 36 36 34 33 31 31 33 33 33 33 32 30 29 29 28 28 28 28 27 25 24 23 22 22 21 21 21 20 19 19 18 17 16 16 16 16 16 16 15 15 16 16 15 15 14 14 13 13 12
17 16 15 16 17 17 17 19 23 27 30 32 34 34 34 35 33 32 32 31 32 34 34 33 32 30 30 29 28 27 28 29 28 26 25 24 22 21 22 22 21 21 20 19 18 18 17 16 16 16 16 16 16 16 16 16 16 15 15 15 14 14 13
18 18 16 15 15 16 18 20 24 29 32 32 34 33 33 34 34 33 33 32 32 32 32 32 32 32 31 30 29 27 28 28 28 27 25 24 23 22 22 23 22 21 20 19 18 18 18 18 17 16 16 16 16 16 17 16 16 16 16 16 15 15 14
17 17 17 16 15 16 19 20 24 30 32 32 32 32 32 33 34 34 32 32 33 32 33 34 34 33 32 31 30 29 29 29 29 28 26 25 25 24 23 23 22 21 20 19 18 18 18 19 18 18 17 17 17 17 17 17 17 16 16 16 16 16 15
17 16 17 18 17 18 18 19 22 27 29 29 30 30 32 33 33 33 33 33 33 33 33 34 34 33 32 31 31 31 31 29 29 28 27 26 26 25 24 23 23 22 20 20 19 19 19 19 19 19 18 18 17 17 17 17 17 16 16 16 17 16 16
16 16 16 17 18 18 17 17 20 24 27 28 30 31 33 33 33 34 35 34 33 34 35 34 34 34 32 31 31 32 31 30 28 28 28 28 27 26 25 24 23 22 22 21 20 19 20 19 19 19 19 19 18 18 17 17 17 17 16 17 17 17 16
16 16 16 17 17 16 15 16 17 19 21 25 28 30 32 32 33 33 34 33 34 35 36 35 33 33 32 32 32 32 31 30 29 29 29 29 28 27 27 25 24 23 23 22 21 20 20 20 20 19 20 20 19 18 18 18 18 17 17 17 17 17 16
13 15 15 16 16 15 15 16 16 16 17 22 27 29 30 32 32 32 33 34 34 34 35 34 33 33 33 32 32 32 31 31 30 30 30 30 29 28 28 26 25 24 23 23 22 21 20 20 21 21 21 21 20 20 19 19 19 18 18 18 17 17 16
4 7 9 11 12 13 13 14 15 16 17 22 27 29 29 31 31 31 32 34 34 33 33 34 33 33 33 32 32 32 32 32 31 30 31 30 29 28 28 27 26 24 24 24 24 23 21 21 21 22 22 21 20 20 20 19 19 19 19 18 17 17 17
1 3 5 8 9 10 11 12 14 17 18 22 27 29 30 31 32 31 32 33 33 32 33 33 33 33 33 32 32 32 33 33 32 31 31 30 29 28 27 27 26 25 24 24 24 24 23 22 22 22 22 22 21 20 20 19 19 19 19 19 18 18 17
2 4 6 8 9 11 13 14 15 17 18 21 25 27 28 30 31 31 31 32 32 32 32 33 33 33 33 32 32 32 33 33 32 31 30 29 28 27 26 26 26 26 24 23 23 24 24 23 22 21 21 21 21 21 20 20 20 20 20 20 20 19 19
2 2 4 7 10 13 14 15 16 17 18 20 24 27 27 27 28 29 29 30 31 32 32 32 33 33 32 31 31 32 32 31 30 30 29 28 28 28 27 26 26 25 24 23 23 23 23 23 22 21 21 21 21 21 20 20 20 20 21 21 20 20 20
8 6 4 3 6 11 15 16 16 18 19 19 23 26 27 26 27 29 30 31 32 32 32 32 32 33 32 32 32 31 30 30 29 29 29 29 28 28 27 26 25 25 25 24 23 23 22 23 22 21 21 21 21 21 21 21 21 22 24 23 22 20 19
11 11 10 9 7 6 11 15 17 18 18 20 23 27 28 27 28 30 30 31 32 33 33 33 33 33 33 32 30 30 30 30 29 29 29 29 28 28 28 26 25 25 25 24 23 23 22 22 22 22 21 20 20 21 21 21 21 24 27 27 26 22 19
14 13 13 11 10 10 9 12 16 18 20 22 26 29 29 28 29 29 30 31 32 33 33 33 33 33 32 30 29 29 30 30 30 29 29 29 28 28 28 27 25 25 25 25 24 23 22 22 22 22 21 20 20 21 21 21 22 25 27 28 29 27 22
15 15 15 14 13 12 13 12 13 17 21 23 27 31 32 32 31 31 32 32 32 32 33 32 32 31 30 29 29 30 30 30 30 29 29 29 28 28 27 27 26 26 25 25 24 23 22 22 22 22 22 21 20 21 21 21 22 26 28 28 29 29 27
16 16 16 16 15 14 13 13 13 16 21 25 29 32 33 33 31 30 30 30 30 31 31 31 30 30 30 30 30 30 29 29 30 29 28 28 28 27 27 28 27 26 25 24 24 23 23 23 23 22 22 22 22 21 21 21 22 25 28 29 28 28 28
16 17 17 17 16 16 15 15 15 16 20 26 28 29 30 30 29 28 28 29 30 31 30 30 29 28 29 30 30 29 29 29 29 29 28 28 27 27 27 27 27 26 25 23 23 23 23 23 23 23 22 23 23 22 22 22 23 25 27 28 28 27 27
17 17 17 17 17 17 17 17 18 18 20 24 25 27 29 30 30 29 29 29 30 30 30 29 28 28 28 30 30 30 30 30 29 29 28 27 27 27 27 27 26 26 25 23 22 22 22 22 23 23 23 24 24 23 23 23 24 27 28 28 28 26 26
18 19 18 19 19 19 20 19 20 19 20 22 24 27 28 29 29 29 28 28 28 29 30 29 28 28 29 30 30 30 30 30 29 29 28 27 28 28 27 27 26 26 25 24 23 22 22 22 23 23 24 25 25 24 24 24 25 27 29 30 29 27 27
20 19 19 19 19 19 19 17 16 18 19 22 25 27 27 28 28 28 27 28 28 28 29 29 29 29 29 29 29 29 29 29 29 29 28 28 28 28 27 26 26 26 25 25 24 23 23 22 22 23 24 24 25 25 25 24 24 27 29 30 30 30 29
21 21 21 21 18 17 18 15 14 16 18 21 24 26 27 28 29 28 27 27 28 28 28 29 29 30 29 29 29 28 28 28 28 28 28 28 27 27 26 26 25 25 25 25 24 24 23 22 22 22 22 23 24 26 26 25 24 26 29 30 31 31 30
20 21 20 20 19 17 17 14 11 14 17 21 24 26 28 29 28 27 27 27 27 27 28 29 29 29 28 27 27 27 27 27 27 27 27 27 26 25 25 25 24 24 24 24 23 23 23 23 22 21 21 22 22 24 26 25 24 25 29 30 31 32 32
23 22 19 20 20 16 13 10 11 15 17 20 24 25 27 29 27 26 27 27 27 28 28 28 27 27 25 26 26 26 26 26 27 27 26 25 25 24 24 24 23 23 24 23 23 23 23 23 22 21 21 21 21 22 24 25 25 25 28 30 31 32 33
22 21 19 20 18 14 10 7 9 14 16 19 24 26 27 28 26 26 26 27 27 28 27 25 25 25 25 26 26 26 26 26 26 26 25 24 24 24 23 23 23 23 23 22 22 22 21 21 21 20 20 19 20 20 21 23 25 25 27 29 30 31 33
18 18 18 18 17 14 9 5 5 10 15 19 22 24 25 26 25 24 26 26 26 25 24 23 24 25 25 25 26 25 25 25 25 25 24 24 25 24 23 23 22 22 22 21 20 20 20 20 19 19 18 18 19 20 20 21 24 26 28 29 30 31 32
17 17 19 18 18 18 12 4 3 5 10 17 19 20 22 23 23 22 23 23 22 22 22 22 23 24 23 24 25 24 23 23 24 24 23 23 24 23 23 22 22 21 21 21 20 19 20 20 20 19 19 19 19 20 20 20 22 25 29 30 31 31 31
18 18 20 20 20 22 15 2 3 2 4 11 15 17 18 20 20 19 18 19 20 22 22 21 22 23 22 23 23 23 22 22 23 23 23 23 23 23 23 23 22 21 21 21 20 20 19 20 20 20 20 20 20 19 20 20 21 22 26 29 30 30 30
19 20 22 22 21 23 18 6 3 4 3 5 9 11 13 15 16 16 15 16 19 20 20 20 21 21 21 21 22 22 21 21 21 22 22 22 22 22 22 22 22 21 21 21 21 21 20 20 21 21 20 20 20 20 19 19 20 20 21 24 27 28 28
19 21 22 21 21 21 19 12 4 4 5 5 6 7 8 10 12 14 14 16 17 18 18 18 19 19 19 20 20 20 21 20 20 20 21 21 21 21 20 21 21 21 21 21 21 21 20 20 20 21 20 19 19 19 19 18 19 19 18 19 22 25 27
19 21 23 24 24 21 18 15 11 8 6 7 6 6 7 8 9 11 12 13 15 16 16 16 16 17 17 18 18 18 19 19 19 19 19 20 21 20 19 20 21 21 21 21 20 20 20 21 20 20 20 20 19 18 18 18 18 18 18 17 17 19 22
20 21 22 24 24 21 17 17 16 14 11 10 9 8 8 9 9 8 8 9 11 13 14 14 14 14 15 16 16 17 17 18 19 19 18 18 19 17 17 18 19 19 19 19 21 22 21 19 19 19 19 19 18 17 17 17 17 17 17 17 17 16 16
21 21 23 24 24 22 20 20 20 18 16 15 14 13 13 12 10 8 6 6 8 11 12 13 13 14 14 15 16 16 16 17 18 18 18 17 16 17 17 16 16 17 16 16 19 23 22 19 17 18 18 17 16 16 17 15 13 14 15 16 18 17 16
20 20 22 23 22 21 22 22 22 21 19 18 17 17 16 15 13 10 8 5 5 8 11 13 13 13 13 14 13 12 14 15 15 15 17 17 15 16 18 15 13 15 16 14 15 20 22 21 18 17 17 16 14 14 16 15 12 12 14 14 16 17 18
21 20 21 21 20 20 21 21 21 20 19 18 18 17 17 17 16 14 11 8 5 5 8 11 11 11 12 12 9 7 9 13 13 13 15 16 14 14 16 14 12 11 12 12 13 16 20 22 20 18 18 17 15 13 14 15 14 14 15 14 14 15 18
Wind_Direction
202 200 198 193 192 192 190 190 190 190 189 188 189 190 190 191 191 190 189 188 187 187 187 187 188 191 194 196 197 198 200 202 203 203 204 206 206 205 203 202 204 206 209 212 212 212 210 210 210 210 211 212 212 214 217 222 223 221 220 220 221 223 225
203 201 199 194 192 194 193 191 190 190 189 189 188 189 190 191 190 191 190 188 187 186 186 187 188 190 193 194 196 198 200 201 202 202 203 204 204 204 204 204 205 207 209 212 211 208 205 205 208 211 213 215 215 214 216 220 222 219 218 218 220 222 224
204 202 200 195 193 195 195 192 190 190 190 189 188 189 191 191 190 191 190 188 187 185 185 187 188 190 191 192 194 197 198 200 202 202 202 204 203 203 203 204 206 208 210 210 208 204 201 202 206 211 214 216 217 215 215 218 220 219 217 216 219 221 221
207 205 201 196 196 196 194 192 191 192 192 190 189 190 190 190 190 190 190 188 186 186 186 187 188 189 190 191 193 195 197 199 201 202 204 206 205 203 203 204 207 209 209 208 206 203 202 202 205 209 212 215 217 216 215 216 217 217 216 217 218 220 221
206 205 203 198 198 197 194 194 193 192 193 193 191 190 189 188 188 189 190 190 190 189 188 187 188 189 190 192 194 196 197 198 200 202 204 206 205 204 204 205 207 209 209 207 204 202 201 201 204 207 209 214 216 216 216 216 216 215 215 217 218 219 221
207 203 204 202 200 199 196 196 195 194 195 194 192 190 188 187 189 190 191 191 192 192 189 188 188 189 191 193 194 195 197 198 199 201 202 203 204 204 206 207 208 209 209 207 203 201 201 201 204 206 208 213 216 216 216 216 217 216 215 216 218 219 221
208 204 205 205 205 204 200 199 197 196 196 194 192 189 188 189 190 191 191 192 192 191 190 190 190 190 190 192 193 194 196 197 198 199 201 202 203 205 206 207 208 209 209 207 204 202 201 202 204 206 207 212 214 215 216 215 215 216 215 217 218 219 220
207 205 204 204 207 209 204 200 198 196 194 192 190 189 190 191 190 191 192 193 192 192 193 193 192 191 190 190 193 194 196 197 197 198 199 201 203 204 206 206 207 208 207 207 206 203 202 204 205 206 207 210 213 213 213 213 214 215 216 217 218 219 220
206 203 202 203 208 210 205 198 196 193 190 189 189 189 190 190 190 192 193 192 191 193 194 194 193 191 189 190 192 194 195 195 196 197 198 200 203 205 206 206 206 206 205 207 207 205 205 206 206 205 207 209 211 211 212 212 213 215 216 217 218 218 219
204 198 199 205 209 210 204 196 193 190 187 188 190 189 189 190 191 192 192 192 193 194 194 193 193 191 189 190 191 192 193 194 195 196 198 200 203 204 206 207 206 205 205 207 208 207 206 207 206 205 205 208 209 209 210 210 212 215 216 217 217 218 219
200 196 198 207 210 207 201 193 188 187 184 186 189 189 189 190 192 192 192 193 194 195 194 192 192 192 191 191 190 190 192 193 195 196 198 200 203 205 206 207 206 204 204 207 208 208 206 205 206 206 206 207 209 209 209 210 211 213 215 216 218 219 220
191 193 200 213 215 208 201 192 186 185 183 184 188 189 188 190 191 192 192 193 194 193 192 191 191 191 191 191 191 191 192 193 195 197 199 200 203 204 205 206 206 205 204 205 207 207 207 205 205 207 207 208 209 210 211 211 212 213 214 216 217 219 221
144 197 206 216 216 207 200 193 188 186 185 186 189 189 188 189 191 191 191 192 192 191 190 190 190 190 190 191 191 191 191 193 194 196 199 200 202 203 204 205 206 205 204 204 205 207 207 207 206 207 207 208 210 212 212 212 213 213 213 214 216 218 221
208 205 204 205 206 201 196 194 191 188 187 189 190 191 191 191 191 191 191 190 190 189 189 189 189 189 190 190 191 191 192 193 193 195 197 198 199 201 202 203 204 205 204 203 204 207 208 208 207 207 208 209 211 213 213 213 214 213 212 214 215 217 220
314 244 210 203 201 199 198 196 191 188 187 189 191 192 192 192 192 191 190 189 189 190 189 188 188 189 189 190 191 191 191 191 191 193 195 195 196 198 199 201 201 202 202 202 204 206 208 209 208 207 208 209 211 213 214 214 214 214 213 212 213 216 220
347 349 337 285 217 206 203 200 195 191 189 189 191 193 192 192 192 191 190 189 188 189 188 187 187 188 189 190 191 190 188 188 188 189 191 193 193 194 196 197 197 199 200 201 203 204 207 208 209 209 209 209 211 212 212 213 215 215 216 214 213 214 218
347 345 341 335 315 260 225 211 204 197 192 191 193 195 194 192 192 192 191 189 188 189 187 186 186 187 189 190 189 186 185 185 185 187 189 190 191 191 192 193 194 196 198 199 201 203 205 206 208 211 212 211 212 212 212 214 215 217 220 221 220 216 216
339 336 331 328 323 308 276 241 219 205 199 197 196 196 195 192 191 191 191 190 189 188 187 186 186 187 188 187 185 183 183 183 183 185 186 188 188 189 190 191 192 194 196 198 201 201 204 206 208 211 213 214 215 214 215 216 216 219 224 227 227 224 220
332 329 326 323 317 307 293 273 241 217 207 201 198 197 195 192 190 191 191 190 187 186 187 187 186 185 185 184 183 182 182 181 182 184 185 186 187 187 188 191 193 195 196 199 201 201 204 207 208 210 213 215 217 218 219 219 219 222 227 230 232 231 227
328 324 321 317 312 306 297 285 262 234 217 207 201 198 195 192 191 190 188 186 185 186 187 186 185 184 182 182 182 181 181 181 183 185 185 185 186 187 189 192 194 197 199 201 202 203 205 207 209 211 212 215 217 220 222 222 222 225 229 232 233 233 231
327 321 315 311 308 306 300 287 270 246 225 214 205 198 194 192 190 187 185 183 183 185 186 184 184 183 182 182 181 180 181 182 184 185 185 185 187 189 191 194 196 198 200 203 204 204 206 208 209 211 212 213 216 220 223 225 224 226 230 233 234 234 233
323 316 308 304 302 300 296 284 269 249 229 218 207 197 193 191 188 185 184 184 183 184 184 183 183 183 182 182 182 182 183 184 185 186 186 186 187 191 194 196 197 198 200 203 205 206 206 208 210 211 212 213 215 219 224 226 226 227 229 232 234 233 232
318 312 303 299 298 295 290 278 263 247 228 214 205 198 194 190 186 184 184 183 182 182 182 182 183 183 182 183 185 185 185 186 186 186 186 187 189 193 195 196 196 197 198 201 205 206 206 207 210 212 212 214 214 216 222 226 226 227 229 231 232 231 229
316 310 303 299 297 297 295 279 253 235 218 205 201 196 190 186 183 181 182 182 182 181 181 183 184 184 183 186 187 186 186 186 187 187 187 189 191 194 194 195 196 197 197 201 205 207 208 208 210 212 213 214 214 215 220 225 227 227 229 231 231 230 228
316 310 306 303 302 305 305 288 249 225 210 200 196 190 184 182 180 178 179 181 180 180 182 185 186 186 186 188 187 186 185 186 187 188 189 190 192 194 194 195 196 197 198 202 205 208 209 209 211 213 214 215 216 216 219 225 228 228 230 231 232 231 227
311 309 310 311 311 312 307 286 239 211 202 195 191 186 180 178 177 176 177 178 179 182 186 188 188 188 188 186 185 184 185 185 187 189 190 192 193 194 195 196 197 198 199 201 205 207 209 210 211 214 215 215 217 217 219 223 226 229 230 231 233 233 227
313 316 321 320 317 316 304 274 222 208 204 191 185 181 177 176 177 176 175 176 181 187 190 189 188 187 185 184 184 184 184 185 188 189 190 191 192 194 197 198 199 200 200 202 205 206 208 210 212 215 217 217 217 218 219 222 223 226 230 231 233 234 229
318 323 329 327 324 320 306 274 226 215 205 187 182 182 180 179 178 174 174 179 186 189 188 185 185 184 182 183 183 184 184 186 187 187 189 190 191 194 197 199 201 201 201 204 206 206 206 208 210 214 217 217 219 220 221 223 222 224 228 231 233 234 231
320 327 334 334 334 333 321 302 260 228 203 187 185 186 182 180 176 173 178 184 186 184 181 181 181 181 180 181 182 183 184 185 185 185 187 190 191 194 197 198 200 202 202 204 205 204 205 206 208 213 217 218 220 222 223 225 225 224 226 230 233 235 233
327 332 336 337 341 342 334 310 293 264 198 183 184 183 180 179 177 176 181 182 178 176 177 178 178 177 177 179 180 182 183 184 184 185 187 190 191 193 196 196 198 199 200 201 202 203 205 207 209 214 218 221 224 225 224 225 227 227 227 229 232 234 234
329 331 335 340 347 348 345 307 218 266 174 173 179 180 180 181 179 179 179 175 171 173 175 174 174 176 176 177 178 180 181 182 185 187 188 190 190 192 194 195 195 197 198 200 203 205 207 208 211 214 218 221 223 224 222 222 224 227 230 231 233 234 234
333 335 339 343 345 346 349 353 184 177 135 148 168 175 182 187 184 178 173 169 170 173 173 173 173 174 175 176 177 179 181 183 185 188 189 191 192 193 194 194 194 195 197 201 205 207 209 211 212 213 216 219 221 221 221 220 221 225 227 229 231 233 233
339 339 337 336 337 343 355 11 54 130 128 128 141 156 170 177 176 172 164 161 167 170 170 172 174 174 175 177 178 180 183 184 186 187 189 190 191 193 194 195 195 195 197 200 202 204 207 211 212 213 216 219 221 221 220 218 219 220 219 217 220 225 228
338 336 333 334 338 346 1 20 37 62 92 106 115 128 132 129 141 153 153 156 165 170 171 174 176 176 178 179 179 182 185 187 187 188 189 191 193 196 197 197 198 199 200 201 202 203 206 209 210 212 215 218 219 219 219 218 217 218 216 211 208 211 217
334 331 332 337 340 343 356 15 28 40 58 76 89 105 106 97 101 120 134 151 168 174 177 179 179 181 183 183 185 187 188 189 192 192 193 192 191 192 195 196 197 201 203 204 205 207 207 208 208 209 212 216 217 216 216 217 216 215 215 215 211 203 200
331 331 335 340 343 345 354 8 20 29 42 55 69 83 86 81 84 98 117 148 172 179 182 181 180 184 188 191 195 195 193 195 197 196 196 196 188 181 183 189 192 197 201 203 205 208 210 211 209 208 210 213 215 215 217 220 221 218 215 216 217 211 202
329 333 337 340 343 346 353 5 17 26 33 42 55 69 76 77 78 84 92 107 146 173 180 180 179 182 188 194 197 193 193 198 199 195 197 201 190 174 173 178 184 193 201 205 202 203 208 212 212 209 210 213 216 217 220 224 227 226 222 219 219 218 214
328 334 338 341 345 349 351 358 12 23 26 31 42 53 61 64 62 61 66 72 83 133 163 171 174 175 180 186 183 174 185 195 196 193 196 196 186 171 170 170 168 175 191 203 203 201 203 207 211 212 212 215 219 220 222 227 231 231 227 222 219 217 213